Location: Peebles
(55.6412°N, 3.1714°W)
Time: 05:39:25
(UTC+01:00)

METEOR 2-8 DEB - Pass Details

Date: 08 July 2022
Orbit: 792 x 830 km, 82.5° (Epoch: 08 August)

Event Time Altitude Azimuth Distance (km) Brightness Sun altitude
Rises 01:04:00 0° 264° (W) 3,315 ? -11.8°
Reaches altitude 10° 01:08:42 10° 302° (WNW) 2,381 ? -11.8°
Maximum altitude 01:09:56 11° 315° (NW) 2,328 ? -11.8°
Drops below altitude 10° 01:11:11 10° 329° (NNW) 2,380 ? -11.8°
Sets 01:15:53 0° 7° (N) 3,310 ? -11.9°
